Comox, British Columbia

10:01 AM PDT on April 25, 2017 (GMT -0700)
Comox

Weather History for CYQQ - April, 2013

Change the Weather History Date:

Wednesday, April 24, 2013

  Actual Average Record
Temperature  
Mean Temperature 53 °F -  
Max Temperature 63 °F 60 °F 69 °F (2006)
Min Temperature 43 °F 44 °F 35 °F (2002)
Degree Days  
Heating Degree Days 12    
Growing Degree Days 3 (Base 50)    
Moisture  
Dew Point 38 °F    
Average Humidity 55    
Maximum Humidity 66    
Minimum Humidity 30    
Precipitation  
Precipitation 0.00 in 0.06 in - ()
Sea Level Pressure  
Sea Level Pressure 30.25 in    
Wind  
Wind Speed 6 mph ()    
Max Wind Speed 12 mph    
Max Gust Speed -    
Visibility 19.9 miles    
Events      
Averages and records for this station are not official NWS values.
T = Trace of Precipitation, MM = Missing Value Source: Averaged Metar Reports

Daily Weather History Graph

Daily Weather History Graph

Search for Another Location

Airport or City:

Trip Planner

Search our weather history database for the weather conditions in past years. The results will help you decide how hot, cold, wet, or windy it might be!

Date:

Astronomy

Apr. 24, 2013 Rise Set
Actual Time 6:08 AM PDT 8:27 PM PDT
Civil Twilight 5:33 AM PDT 9:02 PM PDT
Nautical Twilight 4:49 AM PDT 9:47 PM PDT
Astronomical Twilight 3:58 AM PDT 10:38 PM PDT
Moon 7:35 PM PDT (4/24) 5:22 AM PDT (4/24)
Length of Visible Light 15h 29m
Length of Day
14h 18m
Waxing Gibbous, 98% of the Moon is Illuminated
Apr 24
Waxing Gibbous
Apr 25
Full
May 2
Last Quarter
May 9
New
May 17
First Quarter

Hourly Weather History & Observations

Time (PDT) Temp. Windchill Dew Point Humidity Pressure Visibility Wind Dir Wind Speed Gust Speed Precip Events Conditions
12:00 AM 48.2 °F - 37.4 °F 66% 30.34 in 20.0 mi NW 4.6 mph - N/A   Clear
1:00 AM 48.2 °F - 37.4 °F 66% 30.35 in 20.0 mi NW 5.8 mph - N/A   Clear
2:00 AM 48.2 °F - 37.4 °F 66% 30.35 in 20.0 mi WNW 4.6 mph - N/A   Clear
3:00 AM 48.2 °F - 35.6 °F 62% 30.35 in 20.0 mi West 4.6 mph - N/A   Clear
4:00 AM 46.4 °F 42.9 °F 35.6 °F 66% 30.35 in 20.0 mi WNW 6.9 mph - N/A   Clear
5:00 AM 47 °F - 34 °F 49% 30.35 in 19 mi WNW 4.6 mph - -   Clear
5:00 AM 46.4 °F 42.9 °F 33.8 °F 62% 30.35 in 20.0 mi WNW 6.9 mph - N/A   Partly Cloudy
6:00 AM 44.6 °F 40.7 °F 33.8 °F 66% 30.34 in 20.0 mi WNW 6.9 mph - N/A   Partly Cloudy
7:00 AM 44.6 °F 40.2 °F 33.8 °F 66% 30.35 in 20.0 mi WNW 8.1 mph - N/A   Partly Cloudy
8:00 AM 48.2 °F - 35.6 °F 62% 30.34 in 20.0 mi WNW 3.5 mph - N/A   Scattered Clouds
9:00 AM 50.0 °F - 39.2 °F 66% 30.33 in 20.0 mi NNW 5.8 mph - N/A   Mostly Cloudy
10:00 AM 51.8 °F - 39.2 °F 62% 30.33 in 20.0 mi NNW 11.5 mph - N/A   Mostly Cloudy
11:00 AM 55 °F - 40 °F 45% 30.30 in 19 mi NNW 9.2 mph - -   Clear
11:00 AM 55.4 °F - 39.2 °F 54% 30.30 in 20.0 mi North 9.2 mph - N/A   Mostly Cloudy
12:00 PM 55.4 °F - 39.2 °F 54% 30.29 in 20.0 mi North 9.2 mph - N/A   Mostly Cloudy
1:00 PM 59.0 °F - 41.0 °F 51% 30.26 in 20.0 mi North 9.2 mph - N/A   Mostly Cloudy
2:00 PM 60.8 °F - 39.2 °F 45% 30.23 in 20.0 mi North 6.9 mph - N/A   Mostly Cloudy
3:00 PM 60.8 °F - 41.0 °F 48% 30.20 in 20.0 mi North 4.6 mph - N/A   Mostly Cloudy
4:00 PM 62.6 °F - 41.0 °F 45% 30.18 in 20.0 mi NNE 6.9 mph - N/A   Mostly Cloudy
5:00 PM 62 °F - 38 °F 30% 30.14 in 19 mi North 8.1 mph - -   Clear
5:00 PM 62.6 °F - 39.2 °F 42% 30.14 in 20.0 mi NNE 6.9 mph - N/A   Mostly Cloudy
6:00 PM 62.6 °F - 37.4 °F 39% 30.12 in 20.0 mi North 4.6 mph - N/A   Mostly Cloudy
8:00 PM 59.0 °F - 33.8 °F 39% 30.10 in 20.0 mi NNW 6.9 mph - N/A   Mostly Cloudy
9:00 PM 57.2 °F - 35.6 °F 44% 30.09 in 20.0 mi NNW 10.4 mph - N/A   Overcast
10:00 PM 53.6 °F - 41.0 °F 62% 30.09 in 20.0 mi North 6.9 mph - N/A   Overcast
11:00 PM 53 °F - 41 °F 53% 30.09 in 19 mi NNW 10.4 mph - -   Scattered Clouds
11:00 PM 53.6 °F - 41.0 °F 62% 30.09 in 20.0 mi NNW 10.4 mph - N/A   Mostly Cloudy